Time,TemperatureF,DewpointF,PressureIn,WindDirection,WindDirectionDegrees,WindSpeedMPH,WindSpeedGustMPH,Humidity,HourlyPrecipIn,Conditions,Clouds,dailyrainin,SoftwareType,DateUTC
2013-01-19 00:04:00,32.3,7.7,30.15,West,261,0.0,0.0,35,0.00,CLR,,0.00,WeatherDisplay:10.37,2013-01-19 07:04:00,
2013-01-19 00:09:00,32.2,7.6,30.15,West,261,0.0,0.0,35,0.00,CLR,,0.00,WeatherDisplay:10.37,2013-01-19 07:09:00,
2013-01-19 00:14:00,32.1,8.1,30.15,West,261,0.0,0.0,36,0.00,CLR,,0.00,WeatherDisplay:10.37,2013-01-19 07:14:00,
2013-01-19 00:19:00,32.1,8.1,30.15,West,261,0.0,0.0,36,0.00,CLR,,0.00,WeatherDisplay:10.37,2013-01-19 07:19:00,
2013-01-19 00:24:00,31.9,8.6,30.16,West,261,0.0,0.0,37,0.00,CLR,,0.00,WeatherDisplay:10.37,2013-01-19 07:24:00,
2013-01-19 00:29:00,31.6,8.3,30.16,West,261,0.0,0.0,37,0.00,CLR,,0.00,WeatherDisplay:10.37,2013-01-19 07:29:00,
2013-01-19 00:34:00,31.3,8.6,30.16,West,261,0.0,0.0,38,0.00,CLR,,0.00,WeatherDisplay:10.37,2013-01-19 07:34:00,
2013-01-19 00:40:00,31.0,8.3,30.16,West,261,0.0,0.0,38,0.00,CLR,,0.00,WeatherDisplay:10.37,2013-01-19 07:40:00,
2013-01-19 00:44:00,30.8,8.7,30.16,West,261,0.0,0.0,39,0.00,CLR,,0.00,WeatherDisplay:10.37,2013-01-19 07:44:00,
2013-01-19 00:49:00,30.7,8.6,30.16,West,261,0.0,0.0,39,0.00,CLR,,0.00,WeatherDisplay:10.37,2013-01-19 07:49:00,
2013-01-19 00:54:00,30.6,9.1,30.15,West,261,0.0,0.0,40,0.00,CLR,,0.00,WeatherDisplay:10.37,2013-01-19 07:54:00,
2013-01-19 00:59:00,30.5,9.0,30.16,West,261,0.0,0.0,40,0.00,CLR,,0.00,WeatherDisplay:10.37,2013-01-19 07:59:00,
2013-01-19 01:04:00,30.5,9.0,30.16,West,261,0.0,0.0,40,0.00,CLR,,0.00,WeatherDisplay:10.37,2013-01-19 08:04:00,
2013-01-19 01:09:00,30.4,9.0,30.16,West,261,0.0,0.0,40,0.00,CLR,,0.00,WeatherDisplay:10.37,2013-01-19 08:09:00,
2013-01-19 01:14:00,30.4,8.9,30.17,West,261,0.0,0.0,40,0.00,CLR,,0.00,WeatherDisplay:10.37,2013-01-19 08:14:00,
2013-01-19 01:20:00,30.4,8.9,30.17,West,261,0.0,0.0,40,0.00,CLR,,0.00,WeatherDisplay:10.37,2013-01-19 08:20:00,
2013-01-19 01:24:00,30.4,9.4,30.17,West,261,0.0,0.0,41,0.00,CLR,,0.00,WeatherDisplay:10.37,2013-01-19 08:24:00,
2013-01-19 01:29:00,30.3,8.8,30.17,West,261,0.0,0.0,40,0.00,CLR,,0.00,WeatherDisplay:10.37,2013-01-19 08:29:00,
2013-01-19 01:34:00,30.2,9.3,30.17,West,261,0.0,0.0,41,0.00,CLR,,0.00,WeatherDisplay:10.37,2013-01-19 08:34:00,
2013-01-19 01:40:00,30.1,9.7,30.17,West,261,0.0,0.0,42,0.00,CLR,,0.00,WeatherDisplay:10.37,2013-01-19 08:40:00,
2013-01-19 01:44:00,29.9,9.0,30.17,West,261,0.0,0.0,41,0.00,CLR,,0.00,WeatherDisplay:10.37,2013-01-19 08:44:00,
2013-01-19 01:49:00,29.8,10.0,30.18,West,261,0.0,0.0,43,0.00,CLR,,0.00,WeatherDisplay:10.37,2013-01-19 08:49:00,
2013-01-19 01:54:00,29.9,9.6,30.17,West,261,0.0,0.0,42,0.00,CLR,,0.00,WeatherDisplay:10.37,2013-01-19 08:54:00,
2013-01-19 01:59:00,30.3,9.4,30.18,West,261,0.0,0.0,41,0.00,CLR,,0.00,WeatherDisplay:10.37,2013-01-19 08:59:00,
2013-01-19 02:04:00,30.7,9.2,30.19,West,261,0.0,0.0,40,0.00,CLR,,0.00,WeatherDisplay:10.37,2013-01-19 09:04:00,
2013-01-19 02:09:00,30.9,8.8,30.20,West,261,0.0,0.0,39,0.00,CLR,,0.00,WeatherDisplay:10.37,2013-01-19 09:09:00,
2013-01-19 02:14:00,31.0,8.9,30.20,West,261,0.0,0.0,39,0.00,CLR,,0.00,WeatherDisplay:10.37,2013-01-19 09:14:00,
2013-01-19 02:19:00,31.1,9.0,30.19,West,261,0.0,0.0,39,0.00,CLR,,0.00,WeatherDisplay:10.37,2013-01-19 09:19:00,
2013-01-19 02:24:00,31.3,9.2,30.20,West,261,0.0,0.0,39,0.00,CLR,,0.00,WeatherDisplay:10.37,2013-01-19 09:24:00,
2013-01-19 02:30:00,31.9,9.1,30.20,WSW,244,0.0,6.0,38,0.00,CLR,,0.00,WeatherDisplay:10.37,2013-01-19 09:30:00,
2013-01-19 02:34:00,32.1,9.3,30.19,SW,221,0.0,0.0,38,0.00,CLR,,0.00,WeatherDisplay:10.37,2013-01-19 09:34:00,
2013-01-19 02:39:00,32.3,8.9,30.20,SW,221,0.0,4.0,37,0.00,CLR,,0.00,WeatherDisplay:10.37,2013-01-19 09:39:00,
2013-01-19 02:44:00,32.4,8.9,30.20,SW,221,0.0,0.0,37,0.00,CLR,,0.00,WeatherDisplay:10.37,2013-01-19 09:44:00,
2013-01-19 02:49:00,32.2,8.8,30.20,SW,221,0.0,0.0,37,0.00,CLR,,0.00,WeatherDisplay:10.37,2013-01-19 09:49:00,
2013-01-19 02:54:00,31.6,9.5,30.19,SW,221,0.0,0.0,39,0.00,CLR,,0.00,WeatherDisplay:10.37,2013-01-19 09:54:00,
2013-01-19 02:59:00,31.2,9.6,30.19,SW,221,0.0,0.0,40,0.00,CLR,,0.00,WeatherDisplay:10.37,2013-01-19 09:59:00,
2013-01-19 03:04:00,31.0,9.5,30.19,SW,221,0.0,0.0,40,0.00,CLR,,0.00,WeatherDisplay:10.37,2013-01-19 10:04:00,
2013-01-19 03:09:00,31.1,9.0,30.19,SW,221,0.0,0.0,39,0.00,CLR,,0.00,WeatherDisplay:10.37,2013-01-19 10:09:00,
2013-01-19 03:14:00,31.5,8.2,30.19,SW,221,0.0,0.0,37,0.00,CLR,,0.00,WeatherDisplay:10.37,2013-01-19 10:14:00,
2013-01-19 03:19:00,32.3,7.7,30.18,SW,218,1.0,3.0,35,0.00,CLR,,0.00,WeatherDisplay:10.37,2013-01-19 10:19:00,
2013-01-19 03:25:00,34.5,7.6,30.18,WSW,238,0.0,0.0,32,0.00,CLR,,0.00,WeatherDisplay:10.37,2013-01-19 10:25:00,
2013-01-19 03:30:00,36.5,7.9,30.19,WSW,256,0.0,0.0,30,0.00,CLR,,0.00,WeatherDisplay:10.37,2013-01-19 10:30:00,
2013-01-19 03:35:00,37.8,7.5,30.19,WSW,256,0.0,0.0,28,0.00,CLR,,0.00,WeatherDisplay:10.37,2013-01-19 10:35:00,
2013-01-19 03:40:00,38.7,7.5,30.19,WSW,254,0.0,0.0,27,0.00,CLR,,0.00,WeatherDisplay:10.37,2013-01-19 10:40:00,
2013-01-19 03:45:00,39.8,7.6,30.19,WSW,254,0.0,0.0,26,0.00,CLR,,0.00,WeatherDisplay:10.37,2013-01-19 10:45:00,
2013-01-19 03:50:00,40.7,8.4,30.19,WSW,258,0.0,0.0,26,0.00,CLR,,0.00,WeatherDisplay:10.37,2013-01-19 10:50:00,
2013-01-19 03:55:00,41.5,8.2,30.19,West,281,3.5,3.5,25,0.00,CLR,,0.00,WeatherDisplay:10.37,2013-01-19 10:55:00,
2013-01-19 04:01:00,42.5,8.2,30.18,WNW,287,0.0,0.0,24,0.00,CLR,,0.00,WeatherDisplay:10.37,2013-01-19 11:01:00,
2013-01-19 04:06:00,43.3,7.9,30.18,WSW,255,3.5,3.5,23,0.00,CLR,,0.00,WeatherDisplay:10.37,2013-01-19 11:06:00,
2013-01-19 04:11:00,43.8,8.3,30.18,West,265,0.0,0.0,23,0.00,CLR,,0.00,WeatherDisplay:10.37,2013-01-19 11:11:00,
2013-01-19 05:47:00,34.7,7.8,30.21,NW,311,0.0,0.0,32,0.00,CLR,,0.00,WeatherDisplay:10.37,2013-01-19 12:47:00,
2013-01-19 05:48:00,34.6,7.7,30.22,NW,311,0.0,0.0,32,0.00,CLR,,0.00,WeatherDisplay:10.37,2013-01-19 12:48:00,
2013-01-19 05:49:00,34.4,7.5,30.22,NW,311,0.0,0.0,32,0.00,CLR,,0.00,WeatherDisplay:10.37,2013-01-19 12:49:00,
2013-01-19 05:50:00,34.4,7.5,30.22,NW,311,0.0,0.0,32,0.00,CLR,,0.00,WeatherDisplay:10.37,2013-01-19 12:50:00,
2013-01-19 05:55:00,34.0,7.9,30.22,NW,311,0.0,0.0,33,0.00,CLR,,0.00,WeatherDisplay:10.37,2013-01-19 12:55:00,
2013-01-19 06:00:00,33.5,8.1,30.22,NW,311,0.0,0.0,34,0.00,CLR,,0.00,WeatherDisplay:10.37,2013-01-19 13:00:00,
2013-01-19 06:05:00,32.9,7.6,30.22,NW,311,0.0,0.0,34,0.00,CLR,,0.00,WeatherDisplay:10.37,2013-01-19 13:05:00,
2013-01-19 06:11:00,32.3,8.3,30.22,NW,311,0.0,0.0,36,0.00,CLR,,0.00,WeatherDisplay:10.37,2013-01-19 13:11:00,
2013-01-19 06:16:00,31.6,8.3,30.22,NW,311,0.0,0.0,37,0.00,CLR,,0.00,WeatherDisplay:10.37,2013-01-19 13:16:00,
2013-01-19 06:21:00,30.8,8.7,30.23,NW,311,0.0,0.0,39,0.00,CLR,,0.00,WeatherDisplay:10.37,2013-01-19 13:21:00,
2013-01-19 06:26:00,30.2,8.2,30.22,NW,311,0.0,0.0,39,0.00,CLR,,0.00,WeatherDisplay:10.37,2013-01-19 13:26:00,
2013-01-19 06:32:00,29.7,8.8,30.22,NW,311,0.0,0.0,41,0.00,CLR,,0.00,WeatherDisplay:10.37,2013-01-19 13:32:00,
2013-01-19 06:37:00,29.2,8.4,30.23,NW,311,0.0,0.0,41,0.00,CLR,,0.00,WeatherDisplay:10.37,2013-01-19 13:37:00,
2013-01-19 06:42:00,28.8,8.6,30.24,NW,311,0.0,0.0,42,0.00,CLR,,0.00,WeatherDisplay:10.37,2013-01-19 13:42:00,
2013-01-19 06:47:00,28.5,8.3,30.24,NW,311,0.0,0.0,42,0.00,CLR,,0.00,WeatherDisplay:10.37,2013-01-19 13:47:00,
2013-01-19 06:53:00,28.1,8.4,30.24,NW,311,0.0,0.0,43,0.00,CLR,,0.00,WeatherDisplay:10.37,2013-01-19 13:53:00,
2013-01-19 06:58:00,27.8,8.7,30.24,NW,311,0.0,0.0,44,0.00,CLR,,0.00,WeatherDisplay:10.37,2013-01-19 13:58:00,
2013-01-19 07:03:00,27.5,8.9,30.25,NW,311,0.0,0.0,45,0.00,CLR,,0.00,WeatherDisplay:10.37,2013-01-19 14:03:00,
2013-01-19 07:08:00,27.2,8.6,30.25,NW,311,0.0,0.0,45,0.00,CLR,,0.00,WeatherDisplay:10.37,2013-01-19 14:08:00,
2013-01-19 07:14:00,27.0,8.5,30.25,NW,311,0.0,0.0,45,0.00,CLR,,0.00,WeatherDisplay:10.37,2013-01-19 14:14:00,
2013-01-19 07:19:00,26.9,8.4,30.26,NW,311,0.0,0.0,45,0.00,CLR,,0.00,WeatherDisplay:10.37,2013-01-19 14:19:00,
2013-01-19 07:24:00,26.9,8.8,30.26,NW,311,0.0,0.0,46,0.00,CLR,,0.00,WeatherDisplay:10.37,2013-01-19 14:24:00,
2013-01-19 07:29:00,26.7,8.7,30.26,NW,311,0.0,0.0,46,0.00,CLR,,0.00,WeatherDisplay:10.37,2013-01-19 14:29:00,
2013-01-19 07:34:00,26.6,8.6,30.26,NW,311,0.0,0.0,46,0.00,CLR,,0.00,WeatherDisplay:10.37,2013-01-19 14:34:00,
2013-01-19 07:39:00,26.5,8.5,30.26,NW,311,0.0,0.0,46,0.00,CLR,,0.00,WeatherDisplay:10.37,2013-01-19 14:39:00,
2013-01-19 07:44:00,26.4,8.9,30.26,NW,311,0.0,0.0,47,0.00,CLR,,0.00,WeatherDisplay:10.37,2013-01-19 14:44:00,
2013-01-19 07:49:00,26.4,8.9,30.26,NW,311,0.0,0.0,47,0.00,CLR,,0.00,WeatherDisplay:10.37,2013-01-19 14:49:00,
2013-01-19 07:55:00,26.6,9.1,30.26,NW,311,0.0,0.0,47,0.00,CLR,,0.00,WeatherDisplay:10.37,2013-01-19 14:55:00,
2013-01-19 08:00:00,26.8,9.2,30.26,NW,311,0.0,0.0,47,0.00,CLR,,0.00,WeatherDisplay:10.37,2013-01-19 15:00:00,
2013-01-19 08:05:00,27.0,9.4,30.26,NW,311,0.0,0.0,47,0.00,CLR,,0.00,WeatherDisplay:10.37,2013-01-19 15:05:00,
2013-01-19 08:10:00,27.4,9.3,30.26,NW,311,0.0,0.0,46,0.00,CLR,,0.00,WeatherDisplay:10.37,2013-01-19 15:10:00,
2013-01-19 08:15:00,27.9,9.3,30.28,NW,311,0.0,0.0,45,0.00,CLR,,0.00,WeatherDisplay:10.37,2013-01-19 15:15:00,
2013-01-19 08:20:00,28.6,9.4,30.28,NW,311,0.0,0.0,44,0.00,CLR,,0.00,WeatherDisplay:10.37,2013-01-19 15:20:00,
2013-01-19 08:26:00,29.5,9.7,30.28,NW,311,0.0,0.0,43,0.00,CLR,,0.00,WeatherDisplay:10.37,2013-01-19 15:26:00,
2013-01-19 08:31:00,30.2,9.8,30.28,NW,311,0.0,0.0,42,0.00,CLR,,0.00,WeatherDisplay:10.37,2013-01-19 15:31:00,
2013-01-19 08:36:00,30.8,9.8,30.28,NW,311,0.0,0.0,41,0.00,CLR,,0.00,WeatherDisplay:10.37,2013-01-19 15:36:00,
2013-01-19 08:41:00,31.5,9.9,30.28,NW,311,0.0,0.0,40,0.00,CLR,,0.00,WeatherDisplay:10.37,2013-01-19 15:41:00,
2013-01-19 08:46:00,32.1,9.9,30.28,NW,311,0.0,0.0,39,0.00,CLR,,0.00,WeatherDisplay:10.37,2013-01-19 15:46:00,
2013-01-19 08:51:00,32.8,9.9,30.28,NW,311,0.0,0.0,38,0.00,CLR,,0.00,WeatherDisplay:10.37,2013-01-19 15:51:00,
2013-01-19 08:57:00,33.8,9.6,30.29,NW,311,0.0,0.0,36,0.00,CLR,,0.00,WeatherDisplay:10.37,2013-01-19 15:57:00,
2013-01-19 09:02:00,35.1,10.2,30.29,NW,311,0.0,0.0,35,0.00,CLR,,0.00,WeatherDisplay:10.37,2013-01-19 16:02:00,
2013-01-19 09:07:00,36.4,10.7,30.29,NW,308,0.0,0.0,34,0.00,CLR,,0.00,WeatherDisplay:10.37,2013-01-19 16:07:00,
2013-01-19 09:13:00,37.8,10.5,30.29,NW,308,1.1,1.1,32,0.00,CLR,,0.00,WeatherDisplay:10.37,2013-01-19 16:13:00,
2013-01-19 09:18:00,39.1,11.0,30.29,NW,307,0.0,0.0,31,0.00,CLR,,0.00,WeatherDisplay:10.37,2013-01-19 16:18:00,
2013-01-19 09:23:00,40.4,12.1,30.30,NW,307,0.0,0.0,31,0.00,CLR,,0.00,WeatherDisplay:10.37,2013-01-19 16:23:00,
2013-01-19 09:28:00,41.3,12.1,30.30,SE,132,3.0,3.0,30,0.00,CLR,,0.00,WeatherDisplay:10.37,2013-01-19 16:28:00,
2013-01-19 09:33:00,42.3,11.5,30.30,SSE,166,3.5,3.5,28,0.00,CLR,,0.00,WeatherDisplay:10.37,2013-01-19 16:33:00,
2013-01-19 09:39:00,43.1,11.3,30.30,SSE,165,0.0,0.0,27,0.00,CLR,,0.00,WeatherDisplay:10.37,2013-01-19 16:39:00,
2013-01-19 09:44:00,44.0,12.1,30.30,SSE,164,1.1,0.0,27,0.00,CLR,,0.00,WeatherDisplay:10.37,2013-01-19 16:44:00,
2013-01-19 09:49:00,45.0,12.1,30.30,SSE,161,2.3,2.3,26,0.00,CLR,,0.00,WeatherDisplay:10.37,2013-01-19 16:49:00,
2013-01-19 09:54:00,45.6,11.7,30.30,SSE,166,0.0,0.3,25,0.00,CLR,,0.00,WeatherDisplay:10.37,2013-01-19 16:54:00,
2013-01-19 09:59:00,46.3,12.3,30.30,SSW,207,3.5,3.5,25,0.00,CLR,,0.00,WeatherDisplay:10.37,2013-01-19 16:59:00,
2013-01-19 10:04:00,47.0,12.9,30.30,South,177,3.5,3.5,25,0.00,CLR,,0.00,WeatherDisplay:10.37,2013-01-19 17:04:00,
2013-01-19 10:09:00,47.6,13.5,30.30,South,180,4.0,4.0,25,0.00,CLR,,0.00,WeatherDisplay:10.37,2013-01-19 17:09:00,
2013-01-19 10:15:00,48.0,11.9,30.29,South,180,0.0,4.0,23,0.00,CLR,,0.00,WeatherDisplay:10.37,2013-01-19 17:15:00,
2013-01-19 10:20:00,48.7,13.5,30.28,South,176,0.0,0.0,24,0.00,CLR,,0.00,WeatherDisplay:10.37,2013-01-19 17:20:00,
2013-01-19 10:25:00,49.4,13.1,30.28,South,188,0.0,0.0,23,0.00,CLR,,0.00,WeatherDisplay:10.37,2013-01-19 17:25:00,
2013-01-19 10:30:00,50.3,11.8,30.28,South,176,2.3,2.3,21,0.00,CLR,,0.00,WeatherDisplay:10.37,2013-01-19 17:30:00,
2013-01-19 10:36:00,51.0,12.4,30.28,SSE,161,1.1,0.0,21,0.00,CLR,,0.00,WeatherDisplay:10.37,2013-01-19 17:36:00,
2013-01-19 10:42:00,51.6,12.9,30.28,SE,142,1.1,1.1,21,0.00,CLR,,0.00,WeatherDisplay:10.37,2013-01-19 17:42:00,
2013-01-19 10:47:00,51.9,12.0,30.28,South,172,3.5,3.5,20,0.00,CLR,,0.00,WeatherDisplay:10.37,2013-01-19 17:47:00,
2013-01-19 10:52:00,52.2,12.3,30.28,South,172,2.3,2.3,20,0.00,CLR,,0.00,WeatherDisplay:10.37,2013-01-19 17:52:00,
2013-01-19 10:57:00,52.4,12.4,30.27,South,183,0.0,0.0,20,0.00,CLR,,0.00,WeatherDisplay:10.37,2013-01-19 17:57:00,
2013-01-19 11:04:00,52.8,11.6,30.27,South,189,3.5,3.5,19,0.00,CLR,,0.00,WeatherDisplay:10.37,2013-01-19 18:04:00,
2013-01-19 11:09:00,53.2,11.9,30.26,South,187,0.0,0.0,19,0.00,CLR,,0.00,WeatherDisplay:10.37,2013-01-19 18:09:00,
2013-01-19 11:14:00,53.7,11.1,30.26,South,184,0.0,0.0,18,0.00,CLR,,0.00,WeatherDisplay:10.37,2013-01-19 18:14:00,
2013-01-19 11:19:00,53.9,11.3,30.26,South,187,1.0,3.0,18,0.00,CLR,,0.00,WeatherDisplay:10.37,2013-01-19 18:19:00,
2013-01-19 11:24:00,54.2,11.5,30.26,South,188,0.0,3.0,18,0.00,CLR,,0.00,WeatherDisplay:10.37,2013-01-19 18:24:00,
2013-01-19 11:29:00,54.5,11.8,30.26,South,186,0.0,3.0,18,0.00,CLR,,0.00,WeatherDisplay:10.37,2013-01-19 18:29:00,
2013-01-19 11:35:00,54.5,10.5,30.26,South,178,2.0,2.0,17,0.00,CLR,,0.00,WeatherDisplay:10.37,2013-01-19 18:35:00,
2013-01-19 11:40:00,54.9,12.1,30.26,South,182,3.5,0.0,18,0.00,CLR,,0.00,WeatherDisplay:10.37,2013-01-19 18:40:00,
2013-01-19 11:45:00,55.4,11.2,30.25,South,183,3.5,3.5,17,0.00,CLR,,0.00,WeatherDisplay:10.37,2013-01-19 18:45:00,
2013-01-19 11:50:00,55.6,11.4,30.25,South,188,0.0,0.0,17,0.00,CLR,,0.00,WeatherDisplay:10.37,2013-01-19 18:50:00,
2013-01-19 11:56:00,55.9,11.6,30.24,South,189,3.5,3.5,17,0.00,CLR,,0.00,WeatherDisplay:10.37,2013-01-19 18:56:00,
2013-01-19 12:02:00,56.2,10.5,30.24,South,177,1.0,3.0,16,0.00,CLR,,0.00,WeatherDisplay:10.37,2013-01-19 19:02:00,
2013-01-19 12:08:00,56.4,10.7,30.23,South,169,3.5,3.5,16,0.00,CLR,,0.00,WeatherDisplay:10.37,2013-01-19 19:08:00,
2013-01-19 12:13:00,56.8,11.0,30.23,SSE,156,3.5,3.5,16,0.00,CLR,,0.00,WeatherDisplay:10.37,2013-01-19 19:13:00,
2013-01-19 12:18:00,57.1,11.3,30.22,SE,145,2.3,2.3,16,0.00,CLR,,0.00,WeatherDisplay:10.37,2013-01-19 19:18:00,
2013-01-19 12:23:00,57.1,11.3,30.22,SE,140,2.3,2.3,16,0.00,CLR,,0.00,WeatherDisplay:10.37,2013-01-19 19:23:00,
2013-01-19 12:28:00,57.1,11.3,30.22,East,87,4.0,4.0,16,0.00,CLR,,0.00,WeatherDisplay:10.37,2013-01-19 19:28:00,
2013-01-19 12:34:00,56.9,11.1,30.21,SE,130,2.3,2.3,16,0.00,CLR,,0.00,WeatherDisplay:10.37,2013-01-19 19:34:00,
2013-01-19 12:39:00,56.8,11.0,30.21,ENE,78,2.3,2.3,16,0.00,CLR,,0.00,WeatherDisplay:10.37,2013-01-19 19:39:00,
2013-01-19 12:44:00,57.0,11.2,30.21,East,80,3.5,3.5,16,0.00,CLR,,0.00,WeatherDisplay:10.37,2013-01-19 19:44:00,
2013-01-19 12:49:00,57.4,11.5,30.21,ESE,116,2.3,0.0,16,0.00,CLR,,0.00,WeatherDisplay:10.37,2013-01-19 19:49:00,
2013-01-19 12:54:00,57.5,10.1,30.20,ESE,115,1.0,3.0,15,0.00,CLR,,0.00,WeatherDisplay:10.37,2013-01-19 19:54:00,
2013-01-19 12:59:00,57.7,10.3,30.21,ESE,120,1.0,4.0,15,0.00,CLR,,0.00,WeatherDisplay:10.37,2013-01-19 19:59:00,
2013-01-19 13:05:00,58.1,10.6,30.20,SE,125,1.0,2.0,15,0.00,CLR,,0.00,WeatherDisplay:10.37,2013-01-19 20:05:00,
2013-01-19 13:10:00,58.2,9.1,30.20,SE,128,1.1,1.1,14,0.00,CLR,,0.00,WeatherDisplay:10.37,2013-01-19 20:10:00,
2013-01-19 13:15:00,58.2,9.1,30.19,SE,128,0.0,0.0,14,0.00,CLR,,0.00,WeatherDisplay:10.37,2013-01-19 20:15:00,
2013-01-19 13:21:00,58.2,9.1,30.19,SE,124,3.5,3.5,14,0.00,CLR,,0.00,WeatherDisplay:10.37,2013-01-19 20:21:00,
2013-01-19 13:26:00,58.1,9.1,30.19,SE,125,2.0,2.0,14,0.00,CLR,,0.00,WeatherDisplay:10.37,2013-01-19 20:26:00,
2013-01-19 13:32:00,58.2,9.1,30.19,SSE,163,2.3,2.3,14,0.00,CLR,,0.00,WeatherDisplay:10.37,2013-01-19 20:32:00,
2013-01-19 13:37:00,58.3,9.2,30.19,SSE,159,3.5,3.5,14,0.00,CLR,,0.00,WeatherDisplay:10.37,2013-01-19 20:37:00,
2013-01-19 13:42:00,58.4,9.3,30.18,SSE,159,3.5,3.5,14,0.00,CLR,,0.00,WeatherDisplay:10.37,2013-01-19 20:42:00,
2013-01-19 13:47:00,58.6,9.5,30.18,SSE,157,2.3,2.3,14,0.00,CLR,,0.00,WeatherDisplay:10.37,2013-01-19 20:47:00,
2013-01-19 13:52:00,58.6,9.5,30.18,SE,129,3.0,3.0,14,0.00,CLR,,0.00,WeatherDisplay:10.37,2013-01-19 20:52:00,
2013-01-19 13:58:00,58.7,9.5,30.17,SE,125,2.3,2.3,14,0.00,CLR,,0.00,WeatherDisplay:10.37,2013-01-19 20:58:00,
2013-01-19 14:03:00,58.7,7.9,30.17,SE,125,0.0,0.0,13,0.00,CLR,,0.00,WeatherDisplay:10.37,2013-01-19 21:03:00,
2013-01-19 14:08:00,59.0,8.1,30.17,SE,125,0.0,0.0,13,0.00,CLR,,0.00,WeatherDisplay:10.37,2013-01-19 21:08:00,
2013-01-19 14:13:00,59.0,8.1,30.17,SE,126,0.0,0.0,13,0.00,CLR,,0.00,WeatherDisplay:10.37,2013-01-19 21:13:00,
2013-01-19 14:18:00,59.0,8.1,30.17,SE,126,0.0,0.0,13,0.00,CLR,,0.00,WeatherDisplay:10.37,2013-01-19 21:18:00,
2013-01-19 14:25:00,59.6,8.6,30.17,SE,126,0.0,0.0,13,0.00,CLR,,0.00,WeatherDisplay:10.37,2013-01-19 21:25:00,
2013-01-19 14:30:00,59.9,7.1,30.17,SE,138,0.0,0.0,12,0.00,CLR,,0.00,WeatherDisplay:10.37,2013-01-19 21:30:00,
2013-01-19 14:36:00,60.1,7.2,30.17,SE,139,3.5,3.5,12,0.00,CLR,,0.00,WeatherDisplay:10.37,2013-01-19 21:36:00,
2013-01-19 14:43:00,60.3,7.4,30.17,SSW,201,3.5,3.5,12,0.00,CLR,,0.00,WeatherDisplay:10.37,2013-01-19 21:43:00,
2013-01-19 14:48:00,60.2,7.3,30.17,SSW,201,1.0,1.0,12,0.00,CLR,,0.00,WeatherDisplay:10.37,2013-01-19 21:48:00,
2013-01-19 14:54:00,60.5,7.5,30.17,SSW,201,0.0,0.0,12,0.00,CLR,,0.00,WeatherDisplay:10.37,2013-01-19 21:54:00,
2013-01-19 14:59:00,60.9,7.9,30.17,SSW,200,0.0,0.0,12,0.00,CLR,,0.00,WeatherDisplay:10.37,2013-01-19 21:59:00,
2013-01-19 15:04:00,60.9,7.8,30.17,SSW,201,1.0,3.0,12,0.00,CLR,,0.00,WeatherDisplay:10.37,2013-01-19 22:04:00,
2013-01-19 15:10:00,60.7,7.7,30.17,SW,214,3.5,3.5,12,0.00,CLR,,0.00,WeatherDisplay:10.37,2013-01-19 22:10:00,
2013-01-19 15:16:00,60.6,7.6,30.17,SW,214,2.3,2.3,12,0.00,CLR,,0.00,WeatherDisplay:10.37,2013-01-19 22:16:00,
2013-01-19 15:22:00,60.5,7.5,30.17,SW,215,1.1,1.1,12,0.00,CLR,,0.00,WeatherDisplay:10.37,2013-01-19 22:22:00,
2013-01-19 15:27:00,60.4,7.5,30.17,SW,217,2.3,2.3,12,0.00,CLR,,0.00,WeatherDisplay:10.37,2013-01-19 22:27:00,
2013-01-19 15:32:00,60.3,7.4,30.17,SW,219,0.0,0.0,12,0.00,CLR,,0.00,WeatherDisplay:10.37,2013-01-19 22:32:00,
2013-01-19 15:37:00,60.2,7.3,30.17,SW,227,0.0,0.0,12,0.00,CLR,,0.00,WeatherDisplay:10.37,2013-01-19 22:37:00,
2013-01-19 15:42:00,60.1,7.2,30.17,SW,225,2.3,2.3,12,0.00,CLR,,0.00,WeatherDisplay:10.37,2013-01-19 22:42:00,
2013-01-19 15:48:00,59.9,7.1,30.17,SW,227,2.3,2.3,12,0.00,CLR,,0.00,WeatherDisplay:10.37,2013-01-19 22:48:00,
2013-01-19 15:53:00,59.8,8.8,30.17,SW,227,0.0,0.0,13,0.00,CLR,,0.00,WeatherDisplay:10.37,2013-01-19 22:53:00,
2013-01-19 15:58:00,59.7,8.7,30.17,SW,227,0.0,0.0,13,0.00,CLR,,0.00,WeatherDisplay:10.37,2013-01-19 22:58:00,
2013-01-19 16:03:00,59.6,8.6,30.17,SW,227,0.0,0.0,13,0.00,CLR,,0.00,WeatherDisplay:10.37,2013-01-19 23:03:00,
2013-01-19 16:09:00,59.3,6.6,30.17,SW,227,0.0,0.0,12,0.00,CLR,,0.00,WeatherDisplay:10.37,2013-01-19 23:09:00,
2013-01-19 16:14:00,59.0,8.1,30.17,SW,227,0.0,0.0,13,0.00,CLR,,0.00,WeatherDisplay:10.37,2013-01-19 23:14:00,
2013-01-19 16:19:00,58.4,7.7,30.17,SW,227,0.0,0.0,13,0.00,CLR,,0.00,WeatherDisplay:10.37,2013-01-19 23:19:00,
2013-01-19 16:24:00,57.8,7.2,30.17,SW,229,0.0,0.0,13,0.00,CLR,,0.00,WeatherDisplay:10.37,2013-01-19 23:24:00,
2013-01-19 16:29:00,57.3,6.8,30.18,SW,229,0.0,0.0,13,0.00,CLR,,0.00,WeatherDisplay:10.37,2013-01-19 23:29:00,
2013-01-19 16:34:00,56.8,6.4,30.18,SW,229,0.0,0.0,13,0.00,CLR,,0.00,WeatherDisplay:10.37,2013-01-19 23:34:00,
2013-01-19 16:39:00,56.3,6.0,30.18,SW,229,0.0,0.0,13,0.00,CLR,,0.00,WeatherDisplay:10.37,2013-01-19 23:39:00,
2013-01-19 16:44:00,55.8,5.6,30.18,SW,229,0.0,0.0,13,0.00,CLR,,0.00,WeatherDisplay:10.37,2013-01-19 23:44:00,
2013-01-19 16:50:00,55.2,6.7,30.18,SW,229,0.0,0.0,14,0.00,CLR,,0.00,WeatherDisplay:10.37,2013-01-19 23:50:00,
2013-01-19 16:54:00,54.6,6.3,30.18,SW,229,0.0,0.0,14,0.00,CLR,,0.00,WeatherDisplay:10.37,2013-01-19 23:54:00,
2013-01-19 17:00:00,54.1,5.9,30.18,SW,229,0.0,0.0,14,0.00,CLR,,0.00,WeatherDisplay:10.37,2013-01-20 00:00:00,
2013-01-19 17:05:00,53.4,6.8,30.18,SW,229,0.0,0.0,15,0.00,CLR,,0.00,WeatherDisplay:10.37,2013-01-20 00:05:00,
2013-01-19 17:10:00,52.6,6.2,30.18,SW,229,0.0,0.0,15,0.00,CLR,,0.00,WeatherDisplay:10.37,2013-01-20 00:10:00,
2013-01-19 17:15:00,51.9,4.1,30.18,SW,233,0.0,0.0,14,0.00,CLR,,0.00,WeatherDisplay:10.37,2013-01-20 00:15:00,
2013-01-19 17:20:00,51.4,5.2,30.18,SW,234,0.0,0.0,15,0.00,CLR,,0.00,WeatherDisplay:10.37,2013-01-20 00:20:00,
2013-01-19 17:25:00,50.9,3.3,30.18,SW,235,0.0,0.0,14,0.00,CLR,,0.00,WeatherDisplay:10.37,2013-01-20 00:25:00,
2013-01-19 17:32:00,50.6,3.1,30.18,SW,235,0.0,0.0,14,0.00,CLR,,0.00,WeatherDisplay:10.37,2013-01-20 00:32:00,
2013-01-19 17:37:00,50.4,4.4,30.18,SW,236,1.1,0.0,15,0.00,CLR,,0.00,WeatherDisplay:10.37,2013-01-20 00:37:00,
2013-01-19 17:42:00,50.1,4.2,30.18,SW,236,0.0,0.0,15,0.00,CLR,,0.00,WeatherDisplay:10.37,2013-01-20 00:42:00,
2013-01-19 17:47:00,49.8,3.9,30.19,SW,236,0.0,0.0,15,0.00,CLR,,0.00,WeatherDisplay:10.37,2013-01-20 00:47:00,
2013-01-19 17:52:00,49.3,3.5,30.19,SW,236,0.0,0.0,15,0.00,CLR,,0.00,WeatherDisplay:10.37,2013-01-20 00:52:00,
2013-01-19 17:58:00,48.8,3.1,30.19,SW,236,0.0,0.0,15,0.00,CLR,,0.00,WeatherDisplay:10.37,2013-01-20 00:58:00,
2013-01-19 18:03:00,48.3,2.7,30.19,SW,236,0.0,0.0,15,0.00,CLR,,0.00,WeatherDisplay:10.37,2013-01-20 01:03:00,
2013-01-19 18:08:00,47.8,3.7,30.19,SW,236,0.0,0.0,16,0.00,CLR,,0.00,WeatherDisplay:10.37,2013-01-20 01:08:00,
2013-01-19 18:13:00,47.2,4.5,30.19,SW,236,0.0,0.0,17,0.00,CLR,,0.00,WeatherDisplay:10.37,2013-01-20 01:13:00,
2013-01-19 18:19:00,46.6,4.0,30.20,SW,236,0.0,0.0,17,0.00,CLR,,0.00,WeatherDisplay:10.37,2013-01-20 01:19:00,
2013-01-19 18:24:00,45.9,4.7,30.20,SW,236,0.0,0.0,18,0.00,CLR,,0.00,WeatherDisplay:10.37,2013-01-20 01:24:00,
2013-01-19 18:29:00,45.4,5.5,30.20,SW,236,0.0,0.0,19,0.00,CLR,,0.00,WeatherDisplay:10.37,2013-01-20 01:29:00,
2013-01-19 18:34:00,44.9,5.1,30.20,SW,236,0.0,0.0,19,0.00,CLR,,0.00,WeatherDisplay:10.37,2013-01-20 01:34:00,
2013-01-19 18:40:00,44.3,5.7,30.20,SW,236,0.0,0.0,20,0.00,CLR,,0.00,WeatherDisplay:10.37,2013-01-20 01:40:00,
2013-01-19 18:45:00,43.7,5.2,30.20,SW,236,0.0,0.0,20,0.00,CLR,,0.00,WeatherDisplay:10.37,2013-01-20 01:45:00,
2013-01-19 18:50:00,43.1,5.7,30.20,SW,236,0.0,0.0,21,0.00,CLR,,0.00,WeatherDisplay:10.37,2013-01-20 01:50:00,
2013-01-19 18:55:00,42.4,6.2,30.21,SW,236,0.0,0.0,22,0.00,CLR,,0.00,WeatherDisplay:10.37,2013-01-20 01:55:00,
2013-01-19 19:00:00,42.1,5.9,30.21,SW,236,0.0,0.0,22,0.00,CLR,,0.00,WeatherDisplay:10.37,2013-01-20 02:00:00,
2013-01-19 19:06:00,41.9,6.7,30.21,SW,236,0.0,0.0,23,0.00,CLR,,0.00,WeatherDisplay:10.37,2013-01-20 02:06:00,
2013-01-19 19:11:00,41.8,6.6,30.21,SW,236,0.0,0.0,23,0.00,CLR,,0.00,WeatherDisplay:10.37,2013-01-20 02:11:00,
2013-01-19 19:16:00,41.7,7.5,30.21,SW,236,0.0,0.0,24,0.00,CLR,,0.00,WeatherDisplay:10.37,2013-01-20 02:16:00,
2013-01-19 19:22:00,41.6,7.4,30.21,SW,236,0.0,0.0,24,0.00,CLR,,0.00,WeatherDisplay:10.37,2013-01-20 02:22:00,
2013-01-19 19:28:00,41.5,8.2,30.21,SW,236,0.0,0.0,25,0.00,CLR,,0.00,WeatherDisplay:10.37,2013-01-20 02:28:00,
2013-01-19 19:33:00,41.4,8.1,30.20,SW,236,0.0,0.0,25,0.00,CLR,,0.00,WeatherDisplay:10.37,2013-01-20 02:33:00,
2013-01-19 19:40:00,41.3,8.1,30.21,SW,236,0.0,0.0,25,0.00,CLR,,0.00,WeatherDisplay:10.37,2013-01-20 02:40:00,
2013-01-19 19:44:00,41.1,7.9,30.21,SW,236,0.0,0.0,25,0.00,CLR,,0.00,WeatherDisplay:10.37,2013-01-20 02:44:00,
2013-01-19 19:50:00,41.1,8.8,30.22,SW,236,0.0,0.0,26,0.00,CLR,,0.00,WeatherDisplay:10.37,2013-01-20 02:50:00,
2013-01-19 19:54:00,40.7,9.3,30.22,SW,236,0.0,0.0,27,0.00,CLR,,0.00,WeatherDisplay:10.37,2013-01-20 02:54:00,
2013-01-19 20:00:00,40.2,8.8,30.22,SW,236,0.0,0.0,27,0.00,CLR,,0.00,WeatherDisplay:10.37,2013-01-20 03:00:00,
2013-01-19 20:05:00,39.9,9.4,30.22,SW,236,0.0,0.0,28,0.00,CLR,,0.00,WeatherDisplay:10.37,2013-01-20 03:05:00,
2013-01-19 20:10:00,39.8,9.3,30.22,SW,236,0.0,0.0,28,0.00,CLR,,0.00,WeatherDisplay:10.37,2013-01-20 03:10:00,
2013-01-19 20:15:00,39.7,10.0,30.22,SW,236,0.0,0.0,29,0.00,CLR,,0.00,WeatherDisplay:10.37,2013-01-20 03:15:00,
2013-01-19 20:20:00,39.6,10.7,30.22,SW,236,0.0,0.0,30,0.00,CLR,,0.00,WeatherDisplay:10.37,2013-01-20 03:20:00,
2013-01-19 20:27:00,39.3,10.4,30.22,SW,236,0.0,0.0,30,0.00,CLR,,0.00,WeatherDisplay:10.37,2013-01-20 03:27:00,
2013-01-19 20:32:00,39.1,10.2,30.22,SW,236,0.0,0.0,30,0.00,CLR,,0.00,WeatherDisplay:10.37,2013-01-20 03:32:00,
2013-01-19 20:37:00,38.7,10.6,30.21,SW,236,0.0,0.0,31,0.00,CLR,,0.00,WeatherDisplay:10.37,2013-01-20 03:37:00,
2013-01-19 20:42:00,38.3,10.3,30.22,SW,236,0.0,0.0,31,0.00,CLR,,0.00,WeatherDisplay:10.37,2013-01-20 03:42:00,
2013-01-19 20:48:00,37.9,10.6,30.21,SW,236,0.0,0.0,32,0.00,CLR,,0.00,WeatherDisplay:10.37,2013-01-20 03:48:00,
2013-01-19 20:53:00,37.5,10.3,30.21,SW,236,0.0,0.0,32,0.00,CLR,,0.00,WeatherDisplay:10.37,2013-01-20 03:53:00,
2013-01-19 20:59:00,37.3,10.1,30.21,SW,236,0.0,0.0,32,0.00,CLR,,0.00,WeatherDisplay:10.37,2013-01-20 03:59:00,
2013-01-19 21:04:00,37.0,10.5,30.21,SW,236,0.0,0.0,33,0.00,CLR,,0.00,WeatherDisplay:10.37,2013-01-20 04:04:00,
2013-01-19 21:09:00,36.7,10.9,30.21,SW,236,0.0,0.0,34,0.00,CLR,,0.00,WeatherDisplay:10.37,2013-01-20 04:09:00,
2013-01-19 21:14:00,36.4,10.7,30.21,SW,236,0.0,0.0,34,0.00,CLR,,0.00,WeatherDisplay:10.37,2013-01-20 04:14:00,
2013-01-19 21:19:00,36.1,11.0,30.21,SW,236,0.0,0.0,35,0.00,CLR,,0.00,WeatherDisplay:10.37,2013-01-20 04:19:00,
2013-01-19 21:24:00,35.8,10.8,30.21,SW,236,0.0,0.0,35,0.00,CLR,,0.00,WeatherDisplay:10.37,2013-01-20 04:24:00,
2013-01-19 21:29:00,35.7,10.7,30.21,SW,236,0.0,0.0,35,0.00,CLR,,0.00,WeatherDisplay:10.37,2013-01-20 04:29:00,
2013-01-19 21:34:00,35.5,11.1,30.21,SW,236,0.0,0.0,36,0.00,CLR,,0.00,WeatherDisplay:10.37,2013-01-20 04:34:00,
2013-01-19 21:39:00,35.2,10.9,30.21,SW,236,0.0,0.0,36,0.00,CLR,,0.00,WeatherDisplay:10.37,2013-01-20 04:39:00,
2013-01-19 21:44:00,34.9,10.6,30.21,SW,236,0.0,0.0,36,0.00,CLR,,0.00,WeatherDisplay:10.37,2013-01-20 04:44:00,
2013-01-19 21:50:00,34.6,11.0,30.21,SW,236,0.0,0.0,37,0.00,CLR,,0.00,WeatherDisplay:10.37,2013-01-20 04:50:00,
2013-01-19 21:54:00,34.4,11.4,30.21,SW,236,0.0,0.0,38,0.00,CLR,,0.00,WeatherDisplay:10.37,2013-01-20 04:54:00,
2013-01-19 22:00:00,34.4,11.4,30.21,SW,236,0.0,0.0,38,0.00,CLR,,0.00,WeatherDisplay:10.37,2013-01-20 05:00:00,
2013-01-19 22:01:00,34.3,11.3,30.21,SW,236,0.0,0.0,38,0.00,CLR,,0.00,WeatherDisplay:10.37,2013-01-20 05:01:00,
2013-01-19 22:03:00,34.1,11.1,30.20,SW,236,0.0,0.0,38,0.00,CLR,,0.00,WeatherDisplay:10.37,2013-01-20 05:03:00,
2013-01-19 22:04:00,34.1,11.1,30.20,SW,236,0.0,0.0,38,0.00,CLR,,0.00,WeatherDisplay:10.37,2013-01-20 05:04:00,
2013-01-19 22:09:00,33.8,10.8,30.20,SW,236,0.0,0.0,38,0.00,CLR,,0.00,WeatherDisplay:10.37,2013-01-20 05:09:00,
2013-01-19 22:14:00,33.7,10.7,30.20,SW,236,0.0,0.0,38,0.00,CLR,,0.00,WeatherDisplay:10.37,2013-01-20 05:14:00,
2013-01-19 22:19:00,33.5,11.2,30.20,SW,236,0.0,0.0,39,0.00,CLR,,0.00,WeatherDisplay:10.37,2013-01-20 05:19:00,
2013-01-19 22:24:00,33.4,10.5,30.20,SW,236,0.0,0.0,38,0.00,CLR,,0.00,WeatherDisplay:10.37,2013-01-20 05:24:00,
2013-01-19 22:30:00,33.2,10.9,30.20,SW,236,0.0,0.0,39,0.00,CLR,,0.00,WeatherDisplay:10.37,2013-01-20 05:30:00,
2013-01-19 22:34:00,32.8,11.1,30.20,SW,236,0.0,0.0,40,0.00,CLR,,0.00,WeatherDisplay:10.37,2013-01-20 05:34:00,
2013-01-19 22:40:00,32.4,10.8,30.19,SW,236,0.0,0.0,40,0.00,CLR,,0.00,WeatherDisplay:10.37,2013-01-20 05:40:00,
2013-01-19 22:44:00,32.1,11.0,30.19,SW,236,0.0,0.0,41,0.00,CLR,,0.00,WeatherDisplay:10.37,2013-01-20 05:44:00,
2013-01-19 22:49:00,31.7,11.2,30.19,SW,236,0.0,0.0,42,0.00,CLR,,0.00,WeatherDisplay:10.37,2013-01-20 05:49:00,
2013-01-19 22:54:00,31.2,10.8,30.19,SW,236,0.0,0.0,42,0.00,CLR,,0.00,WeatherDisplay:10.37,2013-01-20 05:54:00,
2013-01-19 22:59:00,31.0,10.6,30.19,SW,236,0.0,0.0,42,0.00,CLR,,0.00,WeatherDisplay:10.37,2013-01-20 05:59:00,
2013-01-19 23:04:00,30.8,10.9,30.19,SW,236,0.0,0.0,43,0.00,CLR,,0.00,WeatherDisplay:10.37,2013-01-20 06:04:00,
2013-01-19 23:10:00,30.6,11.2,30.19,SW,236,0.0,0.0,44,0.00,CLR,,0.00,WeatherDisplay:10.37,2013-01-20 06:10:00,
2013-01-19 23:14:00,30.5,11.1,30.19,SW,236,0.0,0.0,44,0.00,CLR,,0.00,WeatherDisplay:10.37,2013-01-20 06:14:00,
2013-01-19 23:19:00,30.2,11.4,30.19,SW,236,0.0,0.0,45,0.00,CLR,,0.00,WeatherDisplay:10.37,2013-01-20 06:19:00,
2013-01-19 23:24:00,29.9,11.1,30.19,SW,236,0.0,0.0,45,0.00,CLR,,0.00,WeatherDisplay:10.37,2013-01-20 06:24:00,
2013-01-19 23:30:00,29.7,10.9,30.19,SW,236,0.0,0.0,45,0.00,CLR,,0.00,WeatherDisplay:10.37,2013-01-20 06:30:00,
2013-01-19 23:35:00,29.4,11.2,30.19,SW,236,0.0,0.0,46,0.00,CLR,,0.00,WeatherDisplay:10.37,2013-01-20 06:35:00,
2013-01-19 23:40:00,29.3,11.1,30.20,SW,236,0.0,0.0,46,0.00,CLR,,0.00,WeatherDisplay:10.37,2013-01-20 06:40:00,
2013-01-19 23:44:00,29.1,10.9,30.19,SW,236,0.0,0.0,46,0.00,CLR,,0.00,WeatherDisplay:10.37,2013-01-20 06:44:00,
2013-01-19 23:50:00,28.9,11.2,30.19,SW,236,0.0,0.0,47,0.00,CLR,,0.00,WeatherDisplay:10.37,2013-01-20 06:50:00,
2013-01-19 23:54:00,28.7,11.0,30.19,SW,236,0.0,0.0,47,0.00,CLR,,0.00,WeatherDisplay:10.37,2013-01-20 06:54:00,
2013-01-19 23:59:00,28.6,11.3,30.19,SW,236,0.0,0.0,48,0.00,CLR,,0.00,WeatherDisplay:10.37,2013-01-20 06:59:00,